This demonstration page uses our WeatherBlox Daily Observations layout. Learn more.

Left ArrowRight Arrow

39.01783, -85.05884

Hourly Observations for December 14, 2016

Temp ( °F °C ) Dew Point ( °F °C ) Humidity (%) Winds ( mph kmh ) Pressure ( in mb ) Visibility ( mi km ) Precip ( " mm )
12:52 am 00:52 Cloudy with Mist and Fog 24 -4.4 21 -6.1 88 88 NW 10 17 30.22 1024 5 8 N/A
1:52 am 01:52 Cloudy with Mist and Fog 23 -5 19 -7.2 85 85 NW 10 17 30.24 1024 5 8 N/A
2:52 am 02:52 Mostly Cloudy with Mist and Fog 21 -6.1 17 -8.3 85 85 N 10 17 30.26 1025 6 10 N/A
3:42 am 03:42 Partly Cloudy 19 -7 14 -10 79 79 N 12 19 30.33 1027 8 13 N/A
3:52 am 03:52 Partly Cloudy 19 -7.2 14 -10 81 81 N 10 17 30.26 1025 8 13 N/A
4:52 am 04:52 Mostly Clear with Mist and Fog 18 -7.8 14 -10 84 84 N 7 11 30.26 1025 6 10 N/A
5:52 am 05:52 Clear with Mist and Fog 17 -8.3 13 -10.6 84 84 N 7 11 30.26 1025 5 8 N/A
6:52 am 06:52 Clear with Mist and Fog 16 -8.9 12 -11.1 84 84 N 5 7 30.26 1025 6 10 N/A
7:52 am 07:52 Partly Cloudy with Mist and Fog 14 -10 11 -11.7 88 88 N N/A 30.27 1025 5 8 N/A
8:52 am 08:52 Partly Cloudy 16 -8.9 11 -11.7 80 80 NNW 6 9 30.28 1025 7 11 N/A
9:52 am 09:52 Mostly Cloudy 19 -7.2 14 -10 81 81 N N/A 30.29 1026 7 11 N/A
10:52 am 10:52 Mostly Cloudy 22 -5.6 16 -8.9 78 78 VRB 3 6 30.28 1026 10 16 N/A
11:52 am 11:52 Mostly Cloudy 24 -4.4 16 -8.9 71 71 N N/A 30.24 1024 10 16 N/A
12:52 pm 12:52 Mostly Cloudy 28 -2.2 15 -9.4 58 58 WNW 5 7 30.21 1023 9 14 N/A
1:52 pm 13:52 Cloudy 28 -2.2 16 -8.9 60 60 W 9 15 30.18 1022 10 16 N/A
2:52 pm 14:52 Cloudy 28 -2.2 17 -8.3 63 63 WNW 7 11 30.17 1022 9 14 N/A
3:52 pm 15:52 Cloudy 27 -2.8 16 -8.9 63 63 W 10 17 30.16 1021 10 16 N/A
4:52 pm 16:52 Cloudy 26 -3.3 7 -13.9 44 44 WNW 13 20 30.17 1022 10 16 N/A
5:52 pm 17:52 Mostly Cloudy 24 -4.4 2 -16.7 38 38 WSW 9 15 30.17 1022 10 16 N/A
6:52 pm 18:52 Mostly Cloudy 23 -5 5 -15 46 46 WSW 5 7 30.17 1022 10 16 N/A
7:52 pm 19:52 Mostly Clear 22 -5.6 9 -12.8 57 57 W 8 13 30.18 1022 10 16 N/A
8:52 pm 20:52 Clear 22 -5.6 9 -12.8 57 57 W 17 28 30.20 1023 10 16 N/A
9:52 pm 21:52 Clear 20 -6.7 9 -12.8 62 62 WNW 18 30 30.21 1023 10 16 N/A
10:52 pm 22:52 Mostly Clear 19 -7.2 7 -13.9 59 59 WNW 15 24 30.24 1024 10 16 N/A
11:52 pm 23:52 Clear 17 -8.3 4 -15.6 56 56 W 17 28 30.27 1025 10 16 N/A

Powered by AerisWeather